RH
76 74 72 67 69 70 64 62 60 59 56 51 48 41 38 39 39 40 41 44 44 43 44 45 43 39 37 36 35 35 36 38 40 41 43 46 47 47 48 48 48 48 47 44 40 35 34 36 39 44 47 48 49 50 49 48 47 48 49 47 44 44 44 44 47 49 49 47 45 44 43 43 45 47 47 47 47 47 47 49 52 53 53 52 55
73 71 69 62 62 64 58 57 57 57 52 48 47 40 36 37 37 39 41 44 42 40 39 38 36 34 34 34 34 35 38 39 42 45 49 50 49 49 49 50 51 50 48 45 39 35 36 38 43 46 47 48 50 52 52 52 52 52 53 52 50 48 47 45 46 48 47 46 46 46 47 45 45 45 46 47 46 47 48 51 52 51 50 49 52
70 67 65 59 56 56 53 52 51 50 46 43 42 38 37 36 36 36 36 37 35 34 33 32 32 33 34 35 36 38 40 41 44 49 51 51 50 49 49 52 52 51 49 46 39 36 38 40 45 46 48 50 52 54 55 54 54 55 55 54 54 52 50 49 49 51 47 44 44 46 48 49 47 45 46 48 47 48 51 53 51 48 47 47 51
68 63 60 56 54 52 50 47 45 42 39 37 36 34 33 32 31 32 32 32 32 33 34 35 37 39 39 39 40 40 42 44 48 50 50 50 49 48 51 53 53 53 53 48 40 36 40 43 47 47 49 52 54 56 57 57 55 56 56 53 55 53 49 48 50 52 48 42 43 46 50 50 48 46 47 50 50 51 54 54 50 45 46 48 51
66 61 57 53 53 51 46 43 39 36 33 33 31 29 28 28 29 30 31 32 33 36 39 42 43 44 43 43 43 43 45 47 48 48 47 47 47 49 51 53 53 54 54 51 43 37 41 45 48 49 50 53 55 56 57 60 58 57 55 52 52 48 46 47 48 49 47 44 45 47 50 50 48 50 50 52 55 55 56 54 50 46 47 50 51
63 59 54 51 52 49 45 41 36 34 32 31 29 27 25 27 30 33 33 34 35 39 44 47 47 46 46 45 46 46 46 46 46 45 45 46 47 49 51 52 53 54 55 53 46 40 43 48 52 53 53 53 55 57 58 60 60 57 53 51 50 45 42 42 44 43 43 44 46 48 51 51 51 55 55 57 60 60 60 57 54 51 50 51 52
60 54 50 50 52 50 44 40 36 33 31 29 28 27 27 29 34 36 36 35 36 41 45 47 48 47 47 47 47 46 46 45 45 45 46 47 48 49 50 51 52 55 55 53 49 43 44 49 54 55 54 53 54 57 58 60 60 58 55 53 50 45 41 39 39 39 40 43 45 49 53 54 53 56 57 58 61 62 62 62 61 57 55 53 53
59 51 49 50 52 49 42 37 35 32 30 29 29 30 30 32 36 37 37 37 38 40 43 45 47 48 48 48 48 47 47 47 48 49 50 50 51 51 50 51 53 55 56 55 53 47 45 50 55 56 55 55 55 57 58 60 59 58 57 55 51 45 43 40 38 38 40 42 43 48 52 52 51 54 55 57 58 58 58 59 62 62 60 57 53
58 52 48 50 52 46 39 36 34 33 33 32 31 31 32 34 37 38 39 39 39 41 43 45 48 49 49 49 49 49 50 52 52 52 52 52 52 51 51 52 54 56 57 57 56 52 48 50 56 57 56 57 57 58 59 59 58 57 58 55 50 46 45 43 40 38 38 40 42 46 51 52 53 56 58 59 59 57 55 53 56 60 63 58 53
55 51 49 51 50 43 38 36 35 35 35 34 33 32 32 34 36 38 39 40 41 43 45 46 49 50 50 51 51 52 53 53 52 52 51 52 52 51 51 53 55 56 58 57 56 55 51 51 57 58 57 57 57 58 58 58 58 58 59 56 50 45 44 45 44 42 39 39 43 47 52 56 59 60 60 59 58 56 55 54 53 55 59 56 52
54 50 50 50 47 41 38 36 35 36 34 35 34 32 32 35 36 38 39 40 42 44 45 47 48 49 51 53 54 54 54 53 53 53 53 53 52 51 51 52 53 55 57 57 57 57 54 53 56 59 58 58 57 58 58 58 59 60 61 59 52 45 42 44 46 47 42 39 43 50 55 60 61 61 61 59 57 57 56 58 56 51 54 53 50
53 49 49 48 45 40 37 35 35 34 33 34 32 31 33 35 37 37 38 40 41 43 45 47 49 49 51 52 52 53 53 54 54 55 53 52 52 51 51 51 52 54 55 55 56 56 56 56 57 59 59 59 58 57 59 59 59 60 61 59 53 46 42 43 46 48 45 40 42 49 55 60 62 61 61 60 57 59 59 60 58 52 52 52 48
50 48 47 45 43 39 35 34 34 33 33 33 30 30 33 36 37 37 37 38 39 42 45 48 49 49 50 50 50 50 51 52 52 51 50 50 50 50 49 48 49 51 51 51 53 53 54 56 58 60 61 61 59 57 58 58 58 59 59 58 53 47 42 41 44 48 48 44 42 48 56 60 60 59 59 60 59 60 59 57 57 53 51 50 47
49 46 43 42 42 37 35 35 35 35 34 32 30 30 33 37 37 37 37 38 39 42 45 48 49 48 49 49 49 49 49 49 49 47 47 48 48 47 45 45 46 47 48 48 49 49 50 53 57 59 61 63 61 58 56 55 56 57 57 56 53 49 44 40 42 47 49 46 45 49 56 59 58 59 57 59 60 58 58 57 54 50 48 48 47
47 43 40 41 40 37 36 37 37 37 35 33 31 31 34 36 36 36 37 38 38 42 46 48 49 49 47 47 47 47 47 47 47 45 45 45 44 43 42 41 43 43 44 45 45 45 47 51 56 57 59 62 63 61 59 56 54 54 54 51 48 47 44 41 40 44 47 47 47 48 54 58 57 58 58 58 58 57 58 56 51 47 47 47 48
44 41 39 40 38 37 37 37 38 37 36 33 31 31 34 35 35 35 36 37 38 41 47 48 49 48 47 46 46 46 45 44 44 43 43 42 42 42 41 39 38 38 38 39 38 38 40 44 49 53 56 60 63 63 62 60 57 54 51 45 41 40 39 39 39 40 44 47 48 48 50 52 53 55 56 55 56 57 58 55 48 45 46 47 48
41 41 40 39 37 37 37 37 36 36 36 33 31 31 34 35 35 35 36 37 38 42 47 48 49 47 47 46 45 45 44 42 41 40 39 40 40 40 39 38 36 35 35 35 36 38 40 43 46 50 54 57 60 63 65 64 62 58 52 45 40 39 37 36 38 38 39 43 47 49 50 49 48 49 51 51 53 53 53 53 48 44 45 46 47
41 41 40 37 35 37 37 36 35 36 37 33 32 32 34 35 35 35 35 37 39 43 47 49 48 46 46 45 44 44 42 40 38 37 38 39 39 38 35 35 36 36 34 34 36 40 44 47 50 52 53 54 56 61 65 66 66 62 56 49 44 42 39 36 36 37 38 41 43 44 47 49 48 47 48 49 51 51 52 54 51 47 45 45 46
41 41 39 35 35 37 36 35 35 37 37 34 33 33 34 35 35 35 35 38 41 44 47 47 46 45 44 43 42 40 38 37 35 36 41 43 42 40 36 34 35 35 34 34 37 39 43 46 50 53 53 53 54 58 61 65 67 66 61 55 50 46 41 38 36 36 39 42 42 40 40 43 46 49 50 51 53 53 55 56 53 51 47 43 45
43 42 39 35 34 36 34 34 36 38 38 36 35 34 35 34 34 35 35 38 41 43 44 44 44 43 42 41 40 37 36 34 33 39 47 48 47 46 42 40 37 36 36 37 38 39 41 44 48 51 52 53 53 54 56 59 63 65 65 61 57 52 45 40 37 37 40 43 45 43 39 37 39 43 46 49 52 52 53 54 51 51 48 44 45
45 43 40 34 33 34 33 35 37 38 39 38 36 35 35 35 35 35 37 39 41 42 42 43 43 42 40 39 37 35 35 33 34 42 48 48 49 49 49 48 45 43 44 43 42 42 42 43 45 46 48 50 50 50 52 54 56 58 62 62 61 58 52 45 40 39 40 42 46 46 43 41 38 36 37 40 43 46 49 51 51 50 48 47 47
46 45 40 35 33 33 34 36 38 39 40 40 40 39 39 41 42 39 40 41 42 42 42 43 42 40 39 37 34 34 33 33 37 44 47 47 48 49 51 53 51 49 49 48 48 47 45 43 44 46 44 43 44 45 47 49 50 50 53 58 61 59 57 51 45 42 41 41 43 45 45 44 42 39 35 33 35 39 43 49 54 54 53 52 50
45 44 40 34 32 33 34 36 39 42 43 44 45 43 44 48 48 44 44 44 43 43 43 42 40 39 37 34 32 31 31 34 40 43 45 47 46 48 50 52 52 50 49 49 49 49 47 44 43 44 42 40 40 39 40 41 42 42 43 50 57 58 58 54 50 47 44 43 43 43 43 43 42 41 37 32 30 32 35 41 48 53 54 53 52
45 43 38 30 29 33 34 36 41 44 45 46 47 44 45 49 48 46 46 45 44 45 43 41 39 37 34 32 31 29 30 36 40 42 45 49 49 49 50 51 51 51 51 50 49 48 46 45 44 43 41 40 39 37 37 37 36 36 37 41 49 55 57 56 52 50 48 45 44 43 43 42 40 38 36 33 31 30 31 32 37 41 45 47 52
44 43 35 27 27 31 33 38 43 45 46 46 46 43 43 47 47 47 47 45 44 44 42 40 37 35 32 30 29 29 31 37 41 43 47 51 54 53 53 54 54 54 54 54 51 49 47 47 46 44 42 41 40 39 38 37 36 37 37 37 41 48 52 54 53 51 50 48 46 45 45 45 42 39 36 33 31 30 29 29 31 34 35 38 45
45 43 34 25 25 28 32 39 43 44 45 44 43 41 40 43 46 47 46 44 43 43 41 37 35 34 31 29 29 31 34 39 43 46 48 51 54 55 56 57 56 57 57 56 54 52 52 51 49 46 43 42 42 41 40 39 38 37 37 36 36 43 47 49 51 50 50 50 50 49 50 49 46 43 40 36 33 30 28 29 33 35 34 35 38
47 43 33 24 24 26 31 38 41 41 41 40 39 38 38 41 44 46 45 42 41 41 39 35 34 33 30 28 31 35 38 40 43 45 47 49 51 53 55 55 57 57 56 55 53 54 56 55 51 47 43 43 43 43 41 39 38 36 35 34 34 40 45 44 45 48 49 50 52 53 53 52 49 47 45 43 40 37 33 31 33 36 36 36 37
48 43 32 24 23 25 30 36 37 36 36 35 34 34 35 37 40 41 39 38 38 38 37 34 33 32 29 30 34 37 39 41 43 44 45 46 49 52 54 54 55 56 56 55 54 56 58 55 52 49 46 43 43 43 42 40 38 37 35 35 34 38 43 42 40 43 48 49 52 54 55 55 53 51 50 48 47 46 43 37 33 33 34 36 37
47 40 30 22 22 25 29 34 34 33 32 30 30 30 31 32 33 33 32 31 33 35 35 34 33 31 30 33 37 39 41 43 45 47 47 46 47 51 55 55 56 57 59 58 58 59 57 54 52 51 48 44 44 43 42 41 39 38 36 36 35 37 42 43 40 40 44 48 49 52 55 56 55 55 53 52 51 50 48 44 38 34 33 33 35
44 37 28 22 21 24 28 31 32 31 30 29 28 29 29 30 30 31 31 31 33 35 34 33 33 32 34 38 40 42 44 46 49 51 49 47 49 53 56 57 58 60 61 59 59 59 55 54 53 51 47 45 44 43 42 41 39 39 38 37 36 36 40 42 40 38 41 45 46 50 53 54 55 55 54 53 53 52 52 49 44 42 39 37 37
41 35 28 22 20 23 27 29 30 30 30 29 28 28 29 29 30 32 33 36 38 38 36 34 33 34 38 41 42 44 46 49 52 52 51 51 53 56 58 60 60 59 59 57 57 57 56 56 55 52 49 45 43 41 41 40 39 39 38 37 35 36 39 39 40 37 38 42 42 46 52 53 53 52 52 51 52 53 55 52 48 47 46 44 44
40 34 29 23 20 22 26 26 28 29 29 28 27 27 28 28 30 31 34 37 38 40 39 38 37 39 42 44 45 46 48 51 53 53 54 55 55 56 60 62 60 58 57 58 57 57 58 60 58 56 52 48 45 43 40 38 37 36 35 35 34 37 38 39 40 36 34 37 36 40 48 51 51 49 49 50 50 51 54 53 49 48 48 47 48
38 33 29 25 20 21 24 25 26 29 28 28 26 25 26 29 31 32 35 36 35 37 39 41 43 45 46 47 48 49 50 53 55 55 55 56 55 55 60 62 60 58 57 58 57 57 59 61 61 58 54 49 48 47 42 37 35 33 33 32 32 36 39 39 41 38 33 32 32 34 42 47 47 47 46 47 47 48 51 51 48 47 47 48 48
37 33 29 26 22 20 22 23 24 27 28 28 27 25 25 27 30 32 36 36 34 35 37 41 45 48 49 50 50 51 53 56 57 56 55 55 55 56 59 61 61 58 55 55 56 57 57 58 60 59 54 48 47 48 47 42 36 32 31 31 31 35 39 40 41 40 35 31 30 32 36 39 41 43 43 42 43 43 45 47 46 45 45 47 47
36 33 29 27 24 20 21 22 23 25 27 27 27 27 26 26 27 29 33 35 34 36 39 42 44 48 51 52 53 54 55 57 58 57 56 55 56 58 61 60 59 57 55 54 55 56 56 57 59 58 54 48 46 47 48 47 41 34 31 30 32 35 39 41 41 41 39 34 31 32 33 35 38 39 40 40 41 42 42 42 43 43 43 44 44
36 33 30 27 25 22 20 22 23 24 26 27 26 26 26 25 25 27 29 31 33 36 41 43 45 48 52 53 54 56 56 57 58 57 56 56 57 60 62 60 58 57 56 55 55 55 55 56 57 57 54 50 48 46 46 48 46 38 32 31 33 36 39 40 40 40 40 39 38 37 36 37 38 38 39 39 40 41 40 39 41 41 41 42 43
37 33 30 28 26 23 21 21 22 23 25 26 26 25 25 25 24 25 26 28 31 35 38 42 46 48 50 53 55 55 56 56 57 56 55 55 57 59 60 59 58 58 57 56 56 55 54 56 56 57 55 52 51 49 47 49 48 41 35 34 36 38 38 39 41 41 39 39 40 40 41 41 41 39 39 38 39 39 38 37 39 39 40 41 42
38 35 32 29 27 24 23 21 21 23 24 25 26 25 25 25 24 24 25 26 29 33 36 39 44 46 48 50 53 54 56 56 55 55 55 55 56 58 57 58 57 57 57 56 55 54 54 55 54 55 55 53 52 50 49 49 48 43 38 38 41 41 39 39 42 43 40 38 38 38 39 40 40 40 40 39 39 38 38 37 38 39 40 40 40
39 37 34 31 28 25 24 23 21 21 23 24 25 24 24 24 23 23 23 24 26 30 35 38 41 44 45 46 49 52 53 54 53 53 55 54 56 58 56 56 56 54 53 54 54 53 53 53 52 53 55 55 54 50 48 49 48 46 40 40 44 43 41 40 42 44 41 38 35 34 33 34 35 37 38 39 39 38 38 37 36 38 39 39 39
40 37 36 34 31 27 25 25 22 20 21 22 23 23 23 23 22 22 22 23 25 27 32 37 40 43 45 45 46 48 50 51 52 52 53 53 54 56 56 55 53 50 49 51 51 50 50 48 47 50 52 53 53 50 48 50 50 48 43 41 44 45 44 43 42 43 42 38 34 33 32 30 29 29 29 31 34 35 35 33 32 32 33 34 34
42 38 36 35 34 30 26 26 24 21 19 20 21 21 21 21 21 21 23 24 25 27 29 33 39 42 44 45 44 45 48 50 51 51 52 53 54 55 54 52 50 49 49 49 48 47 45 44 43 45 48 48 49 48 48 49 49 49 46 43 44 46 46 46 43 41 40 39 36 34 31 27 26 25 24 24 26 27 28 28 28 29 30 29 29
44 40 37 36 36 33 29 27 26 23 20 19 20 21 20 20 20 22 23 24 25 28 29 31 36 40 43 44 42 43 46 48 50 50 50 51 53 54 53 51 49 48 47 47 47 46 43 43 44 45 45 45 45 45 45 46 46 46 46 46 47 48 47 47 45 41 40 38 36 34 31 29 28 28 26 23 22 22 23 25 26 27 29 29 29
45 42 39 37 36 35 32 29 27 25 22 19 19 20 20 20 21 22 24 24 25 26 28 30 33 37 40 41 41 41 43 45 47 48 48 49 50 52 51 49 48 46 46 46 46 46 43 42 44 45 44 44 44 43 43 44 45 43 43 45 47 47 48 47 46 44 41 38 36 36 35 33 34 34 33 29 27 27 27 29 30 31 33 32 32
44 42 39 37 36 36 34 32 30 27 24 21 20 20 20 20 21 22 23 24 24 24 26 28 31 34 36 38 39 39 39 41 43 45 46 47 47 48 48 47 46 45 44 45 46 46 44 42 42 45 46 47 46 43 42 43 44 44 43 42 42 43 44 44 45 43 41 39 38 39 39 39 40 40 40 37 35 34 35 36 37 37 37 36 34
40 39 38 37 35 35 35 34 32 31 28 24 22 21 20 20 21 22 22 23 23 23 23 25 28 31 33 35 36 37 36 37 39 41 43 45 46 45 44 44 44 45 43 43 46 47 44 42 43 45 47 48 48 45 43 43 44 45 44 44 44 43 42 40 42 42 40 42 42 41 40 40 41 41 40 39 37 36 37 38 38 37 37 35 32
36 37 37 36 35 34 34 34 33 33 32 28 25 23 21 20 20 21 21 22 23 22 22 24 27 29 31 32 33 34 34 35 35 37 41 44 45 44 43 42 42 43 42 42 45 46 45 44 44 46 47 48 47 46 45 43 43 44 43 44 44 43 43 42 43 44 42 43 43 42 41 39 40 40 38 37 35 34 35 36 36 36 35 32 31
33 37 37 36 35 35 34 34 33 33 34 32 30 27 23 21 20 20 21 22 23 23 23 24 26 28 30 31 30 31 32 33 33 35 39 42 43 44 43 42 41 41 42 42 43 45 47 46 45 47 47 47 47 47 48 46 44 43 42 42 42 41 43 44 45 46 45 44 42 42 40 38 38 38 37 36 35 33 32 33 34 34 34 33 33
35 37 37 35 35 35 35 34 33 33 34 34 33 30 27 23 21 21 21 22 23 24 24 24 25 26 29 30 30 30 30 31 31 33 36 40 42 43 43 42 42 41 41 40 41 43 46 47 46 46 46 46 46 48 50 49 46 45 43 43 43 42 42 43 44 45 46 45 43 41 39 37 36 36 35 36 35 33 32 32 34 34 35 35 36
36 35 36 36 35 36 36 35 33 33 34 35 34 32 29 26 24 23 23 23 23 25 25 25 24 24 26 29 29 29 29 29 30 31 33 37 40 41 42 42 41 41 39 38 39 41 44 46 46 46 45 45 46 47 49 49 49 48 45 44 44 44 43 42 42 43 45 45 44 42 40 39 37 37 37 37 37 36 34 34 35 36 36 37 38
34 35 36 37 36 36 36 35 34 32 33 34 34 33 30 28 28 27 26 24 23 24 25 25 24 23 24 27 28 29 28 28 29 29 31 34 37 39 40 40 39 39 39 37 37 39 41 44 46 46 45 45 46 46 47 48 48 47 45 44 44 44 43 42 42 43 44 44 44 42 41 40 40 39 38 37 38 37 36 36 37 38 38 39 40
36 35 35 35 36 36 35 35 34 33 32 32 33 33 32 30 30 30 28 27 25 25 25 25 24 23 23 25 27 28 28 28 28 28 29 32 34 35 36 37 37 38 38 37 36 37 39 42 45 46 45 45 46 46 46 46 46 44 43 43 43 43 43 42 43 43 43 44 44 43 42 41 40 39 37 36 37 37 37 36 36 37 37 37 37